,,Stat6,,Stat2,,Stat8,,Stat9,,Stat10,,Wind1,,Wind1,
time,status,PA1M_AVG,status,PR1M_SUM,status,RH1M_AVG,status,SR1M_AVG,status,TA1M_AVG,status,W1dAve1m,status,W1sAve1m,
2008-03-04, 00:00:00,VALID,917.807,VALID,0,VALID,100,VALID,0.101885,VALID,17.8628,VALID,157,VALID,0.590216,
2008-03-04, 00:01:00,VALID,917.783,VALID,0,VALID,100,VALID,0.0679233,VALID,17.8336,VALID,136,VALID,0.591654,
2008-03-04, 00:02:00,VALID,917.777,VALID,0,VALID,100,VALID,0.0849042,VALID,17.8276,VALID,146,VALID,0.000347222,
2008-03-04, 00:03:00,VALID,917.744,VALID,0,VALID,100,VALID,0.0849042,VALID,17.7977,VALID,123,VALID,0.650981,
2008-03-04, 00:04:00,VALID,917.74,VALID,0,VALID,100,VALID,0.0679233,VALID,17.801,VALID,148,VALID,0.872332,
2008-03-04, 00:05:00,VALID,917.709,VALID,0,VALID,100,VALID,0.101885,VALID,17.8014,VALID,103,VALID,0.279251,
2008-03-04, 00:06:00,VALID,917.69,VALID,0,VALID,100,VALID,0.0679233,VALID,17.7949,VALID,128,VALID,0.627544,
2008-03-04, 00:07:00,VALID,917.686,VALID,0,VALID,100,VALID,0.0849042,VALID,17.7755,VALID,130,VALID,0.553163,
2008-03-04, 00:08:00,VALID,917.678,VALID,0,VALID,100,VALID,0.0849042,VALID,17.766,VALID,122,VALID,0.0730378,
2008-03-04, 00:09:00,VALID,917.677,VALID,0,VALID,100,VALID,0.0679233,VALID,17.7556,VALID,117,VALID,0,
2008-03-04, 00:10:00,VALID,917.659,VALID,0,VALID,100,VALID,0.0849042,VALID,17.756,VALID,130,VALID,0.395712,
2008-03-04, 00:11:00,VALID,917.645,VALID,0,VALID,100,VALID,0.0849042,VALID,17.7532,VALID,141,VALID,1.13494,
2008-03-04, 00:12:00,VALID,917.63,VALID,0,VALID,100,VALID,0.0509425,VALID,17.7363,VALID,142,VALID,0.874256,
2008-03-04, 00:13:00,VALID,917.624,VALID,0,VALID,100,VALID,-0.0169808,VALID,17.7414,VALID,174,VALID,0.820131,
2008-03-04, 00:14:00,VALID,917.601,VALID,0,VALID,100,VALID,-0.0339617,VALID,17.7312,VALID,151,VALID,0.713844,
2008-03-04, 00:15:00,VALID,917.624,VALID,0,VALID,100,VALID,-0.0169808,VALID,17.7344,VALID,126,VALID,0.539789,
2008-03-04, 00:16:00,VALID,917.597,VALID,0,VALID,100,VALID,0,VALID,17.7249,VALID,152,VALID,0.894727,
2008-03-04, 00:17:00,VALID,917.582,VALID,0,VALID,100,VALID,-0.0339617,VALID,17.715,VALID,132,VALID,0.640811,
2008-03-04, 00:18:00,VALID,917.587,VALID,0,VALID,100,VALID,-0.0169808,VALID,17.7018,VALID,142,VALID,0.236793,
2008-03-04, 00:19:00,VALID,917.573,VALID,0,VALID,100,VALID,0,VALID,17.6986,VALID,163,VALID,0.517323,
2008-03-04, 00:20:00,VALID,917.569,VALID,0,VALID,100,VALID,0,VALID,17.6921,VALID,130,VALID,0.692406,
2008-03-04, 00:21:00,VALID,917.564,VALID,0,VALID,100,VALID,-0.0339617,VALID,17.6856,VALID,130,VALID,0.355469,
2008-03-04, 00:22:00,VALID,917.547,VALID,0,VALID,100,VALID,-0.0169808,VALID,17.6888,VALID,146,VALID,0.758743,
2008-03-04, 00:23:00,VALID,917.532,VALID,0,VALID,100,VALID,-0.0509425,VALID,17.6824,VALID,134,VALID,1.12483,
2008-03-04, 00:24:00,VALID,917.52,VALID,0,VALID,100,VALID,0,VALID,17.6726,VALID,144,VALID,0.80692,
2008-03-04, 00:25:00,VALID,917.502,VALID,0,VALID,100,VALID,0,VALID,17.6791,VALID,147,VALID,0.589666,
2008-03-04, 00:26:00,VALID,917.478,VALID,0,VALID,100,VALID,-0.0339617,VALID,17.6761,VALID,148,VALID,0.692708,
2008-03-04, 00:27:00,VALID,917.448,VALID,0,VALID,100,VALID,-0.0339617,VALID,17.6731,VALID,150,VALID,0.748884,
2008-03-04, 00:28:00,VALID,917.432,VALID,0,VALID,100,VALID,0.0169808,VALID,17.6631,VALID,147,VALID,0.212054,
2008-03-04, 00:29:00,VALID,917.413,VALID,0,VALID,100,VALID,0.0169808,VALID,17.6532,VALID,126,VALID,0.575462,
2008-03-04, 00:30:00,VALID,917.409,VALID,0,VALID,100,VALID,0,VALID,17.6432,VALID,143,VALID,0.0292969,
2008-03-04, 00:31:00,VALID,917.383,VALID,0,VALID,100,VALID,0,VALID,17.6502,VALID,144,VALID,0.229167,
2008-03-04, 00:32:00,VALID,917.373,VALID,0,VALID,100,VALID,0.0169808,VALID,17.6432,VALID,130,VALID,0.456759,
2008-03-04, 00:33:00,VALID,917.35,VALID,0,VALID,100,VALID,0.0509425,VALID,17.63,VALID,133,VALID,0.321646,
2008-03-04, 00:34:00,VALID,917.332,VALID,0,VALID,100,VALID,-0.0169808,VALID,17.6337,VALID,133,VALID,0.908558,
2008-03-04, 00:35:00,VALID,917.31,VALID,0,VALID,100,VALID,0.0169808,VALID,17.6307,VALID,131,VALID,0.540777,
2008-03-04, 00:36:00,VALID,917.295,VALID,0,VALID,100,VALID,0,VALID,17.6311,VALID,140,VALID,1.07369,
2008-03-04, 00:37:00,VALID,917.269,VALID,0,VALID,100,VALID,0,VALID,17.6272,VALID,141,VALID,1.0238,
2008-03-04, 00:38:00,VALID,917.256,VALID,0,VALID,100,VALID,0.0169808,VALID,17.6272,VALID,140,VALID,0.741642,
2008-03-04, 00:39:00,VALID,917.227,VALID,0,VALID,100,VALID,0.0509425,VALID,17.6307,VALID,150,VALID,1.37305,
2008-03-04, 00:40:00,VALID,917.196,VALID,0,VALID,100,VALID,-0.0169808,VALID,17.6177,VALID,144,VALID,1.17605,
2008-03-04, 00:41:00,VALID,917.175,VALID,0,VALID,100,VALID,0,VALID,17.6208,VALID,142,VALID,0.765997,
2008-03-04, 00:42:00,VALID,917.149,VALID,0,VALID,100,VALID,0,VALID,17.624,VALID,151,VALID,0.828658,
2008-03-04, 00:43:00,VALID,917.129,VALID,0,VALID,100,VALID,-0.0169808,VALID,17.6212,VALID,158,VALID,1.1553,
2008-03-04, 00:44:00,VALID,917.095,VALID,0,VALID,100,VALID,0,VALID,17.6275,VALID,154,VALID,0.900977,
2008-03-04, 00:45:00,VALID,917.071,VALID,0,VALID,100,VALID,0,VALID,17.637,VALID,151,VALID,0.545759,
2008-03-04, 00:46:00,VALID,917.044,VALID,0,VALID,100,VALID,-0.0169808,VALID,17.6434,VALID,146,VALID,0.645833,
2008-03-04, 00:47:00,VALID,917.022,VALID,0,VALID,100,VALID,0,VALID,17.6437,VALID,150,VALID,0.680233,
2008-03-04, 00:48:00,VALID,916.993,VALID,0,VALID,100,VALID,-0.0169808,VALID,17.6305,VALID,154,VALID,0.827363,
2008-03-04, 00:49:00,VALID,916.957,VALID,0,VALID,100,VALID,0,VALID,17.637,VALID,144,VALID,0.942073,
2008-03-04, 00:50:00,VALID,916.936,VALID,0,VALID,100,VALID,-0.0169808,VALID,17.64,VALID,145,VALID,0.641406,
2008-03-04, 00:51:00,VALID,916.889,VALID,0,VALID,100,VALID,-0.0169808,VALID,17.6268,VALID,150,VALID,0.878815,
2008-03-04, 00:52:00,VALID,916.862,VALID,0,VALID,99.9908,VALID,0,VALID,17.6335,VALID,149,VALID,1.28888,
2008-03-04, 00:53:00,VALID,916.85,VALID,0,VALID,99.9771,VALID,0,VALID,17.6337,VALID,153,VALID,0.779167,
2008-03-04, 00:54:00,VALID,916.835,VALID,0,VALID,99.9657,VALID,0.0169808,VALID,17.6439,VALID,137,VALID,0.971094,
2008-03-04, 00:55:00,VALID,916.801,VALID,0,VALID,99.9621,VALID,0,VALID,17.6502,VALID,122,VALID,0.336979,
2008-03-04, 00:56:00,VALID,916.775,VALID,0,VALID,99.957,VALID,0,VALID,17.6469,VALID,128,VALID,1.03754,
2008-03-04, 00:57:00,VALID,916.764,VALID,0,VALID,99.9941,VALID,-0.0169808,VALID,17.6337,VALID,128,VALID,0.243641,
2008-03-04, 00:58:00,VALID,916.748,VALID,0,VALID,100,VALID,-0.0169808,VALID,17.6275,VALID,122,VALID,0.691134,
2008-03-04, 00:59:00,VALID,916.734,VALID,0,VALID,100,VALID,0.0169808,VALID,17.6275,VALID,139,VALID,0.960565,
2008-03-04, 01:00:00,VALID,916.717,VALID,0,VALID,100,VALID,0.0169808,VALID,17.6177,VALID,134,VALID,1.06795,
2008-03-04, 01:01:00,VALID,916.701,VALID,0,VALID,100,VALID,0.0169808,VALID,17.6078,VALID,131,VALID,1.13758,
2008-03-04, 01:02:00,VALID,916.693,VALID,0,VALID,100,VALID,0,VALID,17.6013,VALID,141,VALID,0.771532,
2008-03-04, 01:03:00,VALID,916.672,VALID,0,VALID,100,VALID,-0.0169808,VALID,17.6013,VALID,152,VALID,0.548971,
2008-03-04, 01:04:00,VALID,916.667,VALID,0,VALID,100,VALID,-0.0339617,VALID,17.6048,VALID,132,VALID,0.470246,
2008-03-04, 01:05:00,VALID,916.638,VALID,0,VALID,100,VALID,-0.0339617,VALID,17.6048,VALID,161,VALID,0.360417,
2008-03-04, 01:06:00,VALID,916.627,VALID,0,VALID,100,VALID,0,VALID,17.6045,VALID,151,VALID,0.731957,
2008-03-04, 01:07:00,VALID,916.621,VALID,0,VALID,100,VALID,0.0169808,VALID,17.6145,VALID,170,VALID,0.853795,
2008-03-04, 01:08:00,VALID,916.604,VALID,0,VALID,100,VALID,0,VALID,17.6145,VALID,166,VALID,0.945503,
2008-03-04, 01:09:00,VALID,916.603,VALID,0,VALID,100,VALID,0,VALID,17.621,VALID,178,VALID,0.699777,
2008-03-04, 01:10:00,VALID,916.592,VALID,0,VALID,100,VALID,0.0339617,VALID,17.6175,VALID,176,VALID,0.182413,
2008-03-04, 01:11:00,VALID,916.573,VALID,0,VALID,100,VALID,0,VALID,17.6138,VALID,175,VALID,0,
2008-03-04, 01:12:00,VALID,916.559,VALID,0,VALID,100,VALID,0.0169808,VALID,17.6143,VALID,165,VALID,0,
2008-03-04, 01:13:00,VALID,916.556,VALID,0,VALID,100,VALID,0.0169808,VALID,17.6108,VALID,162,VALID,0,
2008-03-04, 01:14:00,VALID,916.562,VALID,0,VALID,100,VALID,0.0169808,VALID,17.6108,VALID,146,VALID,0,
2008-03-04, 01:15:00,VALID,916.548,VALID,0,VALID,100,VALID,0,VALID,17.6115,VALID,137,VALID,0,
2008-03-04, 01:16:00,VALID,916.534,VALID,0,VALID,100,VALID,0,VALID,17.6177,VALID,137,VALID,0,
2008-03-04, 01:17:00,VALID,916.545,VALID,0,VALID,100,VALID,0,VALID,17.611,VALID,137,VALID,0,
2008-03-04, 01:18:00,VALID,916.534,VALID,0,VALID,100,VALID,0,VALID,17.608,VALID,137,VALID,0,
2008-03-04, 01:19:00,VALID,916.538,VALID,0,VALID,100,VALID,0.0339617,VALID,17.5981,VALID,137,VALID,0,
2008-03-04, 01:20:00,VALID,916.541,VALID,0,VALID,100,VALID,0.0169808,VALID,17.6043,VALID,137,VALID,0,
2008-03-04, 01:21:00,VALID,916.553,VALID,0,VALID,100,VALID,0,VALID,17.6078,VALID,137,VALID,0,
2008-03-04, 01:22:00,VALID,916.556,VALID,0,VALID,100,VALID,-0.0169808,VALID,17.6045,VALID,137,VALID,0,
2008-03-04, 01:23:00,VALID,916.557,VALID,0,VALID,100,VALID,0,VALID,17.5983,VALID,137,VALID,0,
2008-03-04, 01:24:00,VALID,916.554,VALID,0,VALID,100,VALID,0,VALID,17.5786,VALID,137,VALID,0,
2008-03-04, 01:25:00,VALID,916.566,VALID,0,VALID,100,VALID,0.0169808,VALID,17.5853,VALID,136,VALID,0,
2008-03-04, 01:26:00,VALID,916.576,VALID,0,VALID,100,VALID,-0.0169808,VALID,17.5821,VALID,136,VALID,0,
2008-03-04, 01:27:00,VALID,916.566,VALID,0,VALID,100,VALID,-0.0169808,VALID,17.5754,VALID,136,VALID,0,
2008-03-04, 01:28:00,VALID,916.562,VALID,0,VALID,100,VALID,-0.0169808,VALID,17.5818,VALID,167,VALID,0,
2008-03-04, 01:29:00,VALID,916.555,VALID,0,VALID,100,VALID,0,VALID,17.5946,VALID,176,VALID,0.752604,
2008-03-04, 01:30:00,VALID,916.559,VALID,0,VALID,100,VALID,0.0169808,VALID,17.6143,VALID,179,VALID,0.208651,
2008-03-04, 01:31:00,VALID,916.55,VALID,0,VALID,100,VALID,0,VALID,17.624,VALID,196,VALID,0,
2008-03-04, 01:32:00,VALID,916.55,VALID,0,VALID,100,VALID,0.0169808,VALID,17.6268,VALID,196,VALID,0,
2008-03-04, 01:33:00,VALID,916.54,VALID,0,VALID,100,VALID,-0.0169808,VALID,17.6272,VALID,196,VALID,0,
2008-03-04, 01:34:00,VALID,916.542,VALID,0,VALID,100,VALID,-0.0169808,VALID,17.6143,VALID,196,VALID,0,
2008-03-04, 01:35:00,VALID,916.54,VALID,0,VALID,100,VALID,-0.0339617,VALID,17.6143,VALID,196,VALID,0,
2008-03-04, 01:36:00,VALID,916.544,VALID,0,VALID,100,VALID,0,VALID,17.624,VALID,196,VALID,0,
2008-03-04, 01:37:00,VALID,916.55,VALID,0,VALID,100,VALID,0,VALID,17.621,VALID,190,VALID,0.28853,
2008-03-04, 01:38:00,VALID,916.549,VALID,0,VALID,100,VALID,0.0169808,VALID,17.624,VALID,184,VALID,0.0126488,
2008-03-04, 01:39:00,VALID,916.558,VALID,0,VALID,100,VALID,-0.0169808,VALID,17.6143,VALID,168,VALID,0.322359,
2008-03-04, 01:40:00,VALID,916.569,VALID,0,VALID,100,VALID,0,VALID,17.6009,VALID,141,VALID,0.258557,
2008-03-04, 01:41:00,VALID,916.57,VALID,0,VALID,100,VALID,0,VALID,17.6143,VALID,137,VALID,0.303416,
2008-03-04, 01:42:00,VALID,916.576,VALID,0,VALID,100,VALID,0,VALID,17.5944,VALID,159,VALID,0.686257,
2008-03-04, 01:43:00,VALID,916.577,VALID,0,VALID,100,VALID,0,VALID,17.6043,VALID,159,VALID,0.809837,
2008-03-04, 01:44:00,VALID,916.58,VALID,0,VALID,100,VALID,0,VALID,17.6015,VALID,155,VALID,0.817951,
2008-03-04, 01:45:00,VALID,916.578,VALID,0,VALID,100,VALID,0,VALID,17.611,VALID,155,VALID,0.917436,
2008-03-04, 01:46:00,VALID,916.598,VALID,0,VALID,100,VALID,0,VALID,17.6171,VALID,161,VALID,0.545139,
2008-03-04, 01:47:00,VALID,916.589,VALID,0,VALID,100,VALID,-0.0169808,VALID,17.6305,VALID,176,VALID,0.828852,
2008-03-04, 01:48:00,VALID,916.604,VALID,0,VALID,100,VALID,0.0169808,VALID,17.6434,VALID,158,VALID,1.10293,
2008-03-04, 01:49:00,VALID,916.599,VALID,0,VALID,100,VALID,0,VALID,17.6465,VALID,159,VALID,0.855015,
2008-03-04, 01:50:00,VALID,916.592,VALID,0,VALID,100,VALID,0.0169808,VALID,17.6633,VALID,163,VALID,0.908558,
2008-03-04, 01:51:00,VALID,916.581,VALID,0,VALID,100,VALID,0.0169808,VALID,17.6597,VALID,156,VALID,1.32994,
2008-03-04, 01:52:00,VALID,916.568,VALID,0,VALID,100,VALID,-0.0169808,VALID,17.6569,VALID,153,VALID,1.0767,
2008-03-04, 01:53:00,VALID,916.588,VALID,0,VALID,100,VALID,0,VALID,17.6499,VALID,165,VALID,0.931974,
2008-03-04, 01:54:00,VALID,916.601,VALID,0,VALID,100,VALID,0,VALID,17.6497,VALID,159,VALID,1.00316,
2008-03-04, 01:55:00,VALID,916.604,VALID,0,VALID,100,VALID,0.0169808,VALID,17.6467,VALID,165,VALID,1.0519,
2008-03-04, 01:56:00,VALID,916.603,VALID,0,VALID,100,VALID,0.0169808,VALID,17.6395,VALID,159,VALID,0.781613,
2008-03-04, 01:57:00,VALID,916.606,VALID,0,VALID,100,VALID,0,VALID,17.6335,VALID,154,VALID,0.787574,
2008-03-04, 01:58:00,VALID,916.608,VALID,0,VALID,100,VALID,0.0169808,VALID,17.6337,VALID,163,VALID,0.738376,
2008-03-04, 01:59:00,VALID,916.609,VALID,0,VALID,100,VALID,0.0169808,VALID,17.6238,VALID,169,VALID,0.92294,
2008-03-04, 02:00:00,VALID,916.599,VALID,0,VALID,100,VALID,0,VALID,17.6303,VALID,162,VALID,0.942522,
2008-03-04, 02:01:00,VALID,916.588,VALID,0,VALID,100,VALID,0,VALID,17.6335,VALID,172,VALID,0.742188,
2008-03-04, 02:02:00,VALID,916.59,VALID,0,VALID,100,VALID,0.0339617,VALID,17.6337,VALID,158,VALID,0.908296,
2008-03-04, 02:03:00,VALID,916.596,VALID,0,VALID,100,VALID,-0.0169808,VALID,17.6208,VALID,163,VALID,1.35029,
2008-03-04, 02:04:00,VALID,916.605,VALID,0,VALID,100,VALID,0.0169808,VALID,17.624,VALID,170,VALID,1.11115,
2008-03-04, 02:05:00,VALID,916.605,VALID,0,VALID,100,VALID,0.0169808,VALID,17.6208,VALID,174,VALID,0.662388,
2008-03-04, 02:06:00,VALID,916.597,VALID,0,VALID,100,VALID,0,VALID,17.6205,VALID,167,VALID,0.961124,
2008-03-04, 02:07:00,VALID,916.602,VALID,0,VALID,100,VALID,0,VALID,17.6173,VALID,164,VALID,0.00230824,
2008-03-04, 02:08:00,VALID,916.609,VALID,0,VALID,100,VALID,0.0169808,VALID,17.614,VALID,163,VALID,1.11594,
2008-03-04, 02:09:00,VALID,916.612,VALID,0,VALID,100,VALID,0.0169808,VALID,17.611,VALID,164,VALID,0.936699,
2008-03-04, 02:10:00,VALID,916.617,VALID,0,VALID,100,VALID,0.0169808,VALID,17.6013,VALID,166,VALID,0.964753,
2008-03-04, 02:11:00,VALID,916.611,VALID,0,VALID,100,VALID,0,VALID,17.5948,VALID,162,VALID,0.885417,
2008-03-04, 02:12:00,VALID,916.618,VALID,0,VALID,100,VALID,0,VALID,17.5976,VALID,159,VALID,0.928385,
2008-03-04, 02:13:00,VALID,916.607,VALID,0,VALID,100,VALID,0.0169808,VALID,17.6013,VALID,162,VALID,0.920007,
2008-03-04, 02:14:00,VALID,916.597,VALID,0,VALID,100,VALID,0,VALID,17.5985,VALID,167,VALID,1.29794,
2008-03-04, 02:15:00,VALID,916.591,VALID,0,VALID,100,VALID,-0.0169808,VALID,17.5916,VALID,159,VALID,1.21172,
2008-03-04, 02:16:00,VALID,916.578,VALID,0,VALID,100,VALID,-0.0169808,VALID,17.5916,VALID,155,VALID,1.54084,
2008-03-04, 02:17:00,VALID,916.57,VALID,0,VALID,100,VALID,0,VALID,17.5953,VALID,167,VALID,1.13095,
2008-03-04, 02:18:00,VALID,916.572,VALID,0,VALID,100,VALID,-0.0339617,VALID,17.6013,VALID,163,VALID,1.19252,
2008-03-04, 02:19:00,VALID,916.578,VALID,0,VALID,100,VALID,-0.0169808,VALID,17.602,VALID,160,VALID,0.911156,
2008-03-04, 02:20:00,VALID,916.558,VALID,0,VALID,100,VALID,-0.0509425,VALID,17.5983,VALID,169,VALID,1.59204,
2008-03-04, 02:21:00,VALID,916.555,VALID,0,VALID,100,VALID,-0.0509425,VALID,17.6082,VALID,170,VALID,1.14735,
2008-03-04, 02:22:00,VALID,916.511,VALID,0,VALID,100,VALID,0,VALID,17.605,VALID,162,VALID,1.58166,
2008-03-04, 02:23:00,VALID,916.519,VALID,0,VALID,100,VALID,0,VALID,17.611,VALID,151,VALID,1.31231,
2008-03-04, 02:24:00,VALID,916.513,VALID,0,VALID,100,VALID,0,VALID,17.621,VALID,159,VALID,1.32422,
2008-03-04, 02:25:00,VALID,916.491,VALID,0,VALID,100,VALID,0,VALID,17.6242,VALID,146,VALID,1.46475,
2008-03-04, 02:26:00,VALID,916.49,VALID,0,VALID,100,VALID,-0.0169808,VALID,17.6272,VALID,161,VALID,1.28089,
2008-03-04, 02:27:00,VALID,916.487,VALID,0,VALID,100,VALID,-0.0169808,VALID,17.627,VALID,155,VALID,1.1875,
2008-03-04, 02:28:00,VALID,916.473,VALID,0,VALID,100,VALID,-0.0169808,VALID,17.627,VALID,162,VALID,1.4881,
2008-03-04, 02:29:00,VALID,916.455,VALID,0,VALID,100,VALID,-0.0169808,VALID,17.6372,VALID,160,VALID,1.50527,
2008-03-04, 02:30:00,VALID,916.45,VALID,0,VALID,100,VALID,0,VALID,17.637,VALID,159,VALID,1.60835,
2008-03-04, 02:31:00,VALID,916.45,VALID,0,VALID,100,VALID,-0.0169808,VALID,17.637,VALID,144,VALID,0.987909,
2008-03-04, 02:32:00,VALID,916.44,VALID,0,VALID,100,VALID,0,VALID,17.6335,VALID,164,VALID,1.21621,
2008-03-04, 02:33:00,VALID,916.437,VALID,0,VALID,100,VALID,-0.0339617,VALID,17.6303,VALID,157,VALID,0.953472,
2008-03-04, 02:34:00,VALID,916.438,VALID,0,VALID,100,VALID,-0.0509425,VALID,17.6342,VALID,152,VALID,1.58594,
2008-03-04, 02:35:00,VALID,916.416,VALID,0,VALID,100,VALID,0,VALID,17.6272,VALID,164,VALID,0.771181,
2008-03-04, 02:36:00,VALID,916.406,VALID,0,VALID,100,VALID,0,VALID,17.6272,VALID,159,VALID,1.25908,
2008-03-04, 02:37:00,VALID,916.394,VALID,0,VALID,100,VALID,-0.0169808,VALID,17.6143,VALID,172,VALID,0.969752,
2008-03-04, 02:38:00,VALID,916.395,VALID,0,VALID,100,VALID,0,VALID,17.611,VALID,140,VALID,0.943496,
2008-03-04, 02:39:00,VALID,916.376,VALID,0,VALID,100,VALID,0,VALID,17.611,VALID,151,VALID,0.849564,
2008-03-04, 02:40:00,VALID,916.379,VALID,0,VALID,100,VALID,0.0169808,VALID,17.6145,VALID,178,VALID,0.480382,
2008-03-04, 02:41:00,VALID,916.352,VALID,0,VALID,100,VALID,-0.0339617,VALID,17.6242,VALID,160,VALID,1.18037,
2008-03-04, 02:42:00,VALID,916.364,VALID,0,VALID,100,VALID,-0.0169808,VALID,17.6175,VALID,150,VALID,1.3834,
2008-03-04, 02:43:00,VALID,916.368,VALID,0,VALID,100,VALID,-0.0169808,VALID,17.6303,VALID,152,VALID,1.30996,
2008-03-04, 02:44:00,VALID,916.363,VALID,0,VALID,100,VALID,0,VALID,17.6339,VALID,134,VALID,1.19699,
2008-03-04, 02:45:00,VALID,916.371,VALID,0,VALID,100,VALID,-0.0169808,VALID,17.6499,VALID,153,VALID,1.27882,
2008-03-04, 02:46:00,VALID,916.382,VALID,0,VALID,100,VALID,-0.0169808,VALID,17.6534,VALID,131,VALID,0.958212,
2008-03-04, 02:47:00,VALID,916.394,VALID,0,VALID,100,VALID,0,VALID,17.6564,VALID,152,VALID,1.62573,
2008-03-04, 02:48:00,VALID,916.404,VALID,0,VALID,100,VALID,-0.0169808,VALID,17.6562,VALID,148,VALID,0.74256,
2008-03-04, 02:49:00,VALID,916.404,VALID,0,VALID,100,VALID,-0.0169808,VALID,17.6629,VALID,151,VALID,1.54241,
2008-03-04, 02:50:00,VALID,916.394,VALID,0,VALID,100,VALID,-0.0339617,VALID,17.6661,VALID,153,VALID,1.58941,
2008-03-04, 02:51:00,VALID,916.388,VALID,0,VALID,100,VALID,-0.0169808,VALID,17.6564,VALID,146,VALID,1.31585,
2008-03-04, 02:52:00,VALID,916.392,VALID,0,VALID,100,VALID,0,VALID,17.6467,VALID,138,VALID,1.23946,
2008-03-04, 02:53:00,VALID,916.394,VALID,0,VALID,100,VALID,0,VALID,17.6467,VALID,159,VALID,1.57656,
2008-03-04, 02:54:00,VALID,916.391,VALID,0,VALID,100,VALID,-0.0339617,VALID,17.6437,VALID,154,VALID,1.06904,
2008-03-04, 02:55:00,VALID,916.384,VALID,0,VALID,100,VALID,-0.0339617,VALID,17.6337,VALID,141,VALID,0.951215,
2008-03-04, 02:56:00,VALID,916.389,VALID,0,VALID,100,VALID,-0.0169808,VALID,17.6305,VALID,145,VALID,1.72866,
2008-03-04, 02:57:00,VALID,916.396,VALID,0,VALID,100,VALID,0,VALID,17.627,VALID,140,VALID,1.00818,
2008-03-04, 02:58:00,VALID,916.401,VALID,0,VALID,100,VALID,0,VALID,17.6305,VALID,126,VALID,0.896949,
2008-03-04, 02:59:00,VALID,916.4,VALID,0,VALID,100,VALID,0,VALID,17.6175,VALID,132,VALID,1.36932,
2008-03-04, 03:00:00,VALID,916.406,VALID,0,VALID,100,VALID,0,VALID,17.6175,VALID,152,VALID,1.06882,
2008-03-04, 03:01:00,VALID,916.4,VALID,0,VALID,100,VALID,0,VALID,17.6177,VALID,161,VALID,1.43378,
2008-03-04, 03:02:00,VALID,916.394,VALID,0,VALID,100,VALID,0,VALID,17.6015,VALID,147,VALID,1.04233,
2008-03-04, 03:03:00,VALID,916.394,VALID,0,VALID,100,VALID,-0.0169808,VALID,17.595,VALID,152,VALID,0.977471,
2008-03-04, 03:04:00,VALID,916.401,VALID,0,VALID,100,VALID,0,VALID,17.5786,VALID,144,VALID,1.25745,
2008-03-04, 03:05:00,VALID,916.386,VALID,0,VALID,100,VALID,0,VALID,17.5721,VALID,152,VALID,1.32192,
2008-03-04, 03:06:00,VALID,916.377,VALID,0,VALID,100,VALID,0,VALID,17.5754,VALID,148,VALID,0.422447,
2008-03-04, 03:07:00,VALID,916.371,VALID,0,VALID,100,VALID,0,VALID,17.5691,VALID,164,VALID,1.07777,
2008-03-04, 03:08:00,VALID,916.374,VALID,0,VALID,100,VALID,0,VALID,17.5754,VALID,150,VALID,0.740691,
2008-03-04, 03:09:00,VALID,916.373,VALID,0,VALID,100,VALID,-0.0339617,VALID,17.5721,VALID,164,VALID,0.519804,
2008-03-04, 03:10:00,VALID,916.39,VALID,0,VALID,100,VALID,-0.0339617,VALID,17.5853,VALID,119,VALID,0.108631,
2008-03-04, 03:11:00,VALID,916.374,VALID,0,VALID,100,VALID,0,VALID,17.5879,VALID,132,VALID,0.317472,
2008-03-04, 03:12:00,VALID,916.365,VALID,0,VALID,100,VALID,0.0169808,VALID,17.5849,VALID,127,VALID,0.291548,
2008-03-04, 03:13:00,VALID,916.353,VALID,0,VALID,100,VALID,0,VALID,17.5881,VALID,140,VALID,0.802148,
2008-03-04, 03:14:00,VALID,916.359,VALID,0,VALID,100,VALID,-0.0169808,VALID,17.5786,VALID,137,VALID,0.656994,
2008-03-04, 03:15:00,VALID,916.359,VALID,0,VALID,100,VALID,-0.0169808,VALID,17.5818,VALID,118,VALID,0.00236192,
2008-03-04, 03:16:00,VALID,916.369,VALID,0,VALID,100,VALID,-0.0169808,VALID,17.5788,VALID,115,VALID,0,
2008-03-04, 03:17:00,VALID,916.376,VALID,0,VALID,100,VALID,-0.0339617,VALID,17.5751,VALID,111,VALID,0.155664,
2008-03-04, 03:18:00,VALID,916.367,VALID,0,VALID,100,VALID,0,VALID,17.5786,VALID,109,VALID,0.0238095,
2008-03-04, 03:19:00,VALID,916.355,VALID,0,VALID,100,VALID,0,VALID,17.5784,VALID,121,VALID,0,
2008-03-04, 03:20:00,VALID,916.376,VALID,0,VALID,100,VALID,-0.0169808,VALID,17.5689,VALID,141,VALID,0.737995,
2008-03-04, 03:21:00,VALID,916.387,VALID,0,VALID,100,VALID,0.0169808,VALID,17.5721,VALID,144,VALID,0.228161,
2008-03-04, 03:22:00,VALID,916.384,VALID,0,VALID,100,VALID,-0.0339617,VALID,17.5754,VALID,149,VALID,0.541606,
2008-03-04, 03:23:00,VALID,916.386,VALID,0,VALID,100,VALID,0,VALID,17.5751,VALID,147,VALID,0.650484,
2008-03-04, 03:24:00,VALID,916.405,VALID,0,VALID,100,VALID,0.0169808,VALID,17.5754,VALID,145,VALID,0.0675347,
2008-03-04, 03:25:00,VALID,916.407,VALID,0,VALID,100,VALID,-0.0169808,VALID,17.5721,VALID,144,VALID,0,
2008-03-04, 03:26:00,VALID,916.408,VALID,0,VALID,100,VALID,-0.0169808,VALID,17.5721,VALID,143,VALID,0,
2008-03-04, 03:27:00,VALID,916.402,VALID,0,VALID,100,VALID,-0.0339617,VALID,17.5594,VALID,140,VALID,0,
2008-03-04, 03:28:00,VALID,916.399,VALID,0,VALID,100,VALID,0,VALID,17.5624,VALID,140,VALID,0,
2008-03-04, 03:29:00,VALID,916.411,VALID,0,VALID,100,VALID,0.0169808,VALID,17.5589,VALID,140,VALID,0,
2008-03-04, 03:30:00,VALID,916.429,VALID,0,VALID,100,VALID,0,VALID,17.5524,VALID,140,VALID,0,
2008-03-04, 03:31:00,VALID,916.431,VALID,0,VALID,100,VALID,-0.0169808,VALID,17.5496,VALID,137,VALID,0,
2008-03-04, 03:32:00,VALID,916.426,VALID,0,VALID,100,VALID,0.0169808,VALID,17.5561,VALID,136,VALID,0,
2008-03-04, 03:33:00,VALID,916.411,VALID,0,VALID,100,VALID,0,VALID,17.5427,VALID,139,VALID,0,
2008-03-04, 03:34:00,VALID,916.424,VALID,0,VALID,100,VALID,0,VALID,17.5429,VALID,141,VALID,0,
2008-03-04, 03:35:00,VALID,916.426,VALID,0,VALID,100,VALID,0,VALID,17.5302,VALID,154,VALID,0,
2008-03-04, 03:36:00,VALID,916.428,VALID,0,VALID,100,VALID,0,VALID,17.53,VALID,138,VALID,0,
2008-03-04, 03:37:00,VALID,916.429,VALID,0,VALID,100,VALID,-0.0169808,VALID,17.52,VALID,150,VALID,1.13459,
2008-03-04, 03:38:00,VALID,916.427,VALID,0,VALID,100,VALID,0,VALID,17.5205,VALID,149,VALID,0.691964,
2008-03-04, 03:39:00,VALID,916.425,VALID,0,VALID,100,VALID,0.0169808,VALID,17.5237,VALID,139,VALID,1.04514,
2008-03-04, 03:40:00,VALID,916.427,VALID,0,VALID,100,VALID,-0.0169808,VALID,17.5172,VALID,126,VALID,1.01172,
2008-03-04, 03:41:00,VALID,916.424,VALID,0,VALID,100,VALID,0,VALID,17.5138,VALID,124,VALID,1.09319,
2008-03-04, 03:42:00,VALID,916.422,VALID,0,VALID,100,VALID,0.0169808,VALID,17.5008,VALID,129,VALID,1.2983,
2008-03-04, 03:43:00,VALID,916.411,VALID,0,VALID,100,VALID,0.0169808,VALID,17.4973,VALID,129,VALID,1.33117,
2008-03-04, 03:44:00,VALID,916.424,VALID,0,VALID,100,VALID,0.0169808,VALID,17.4876,VALID,130,VALID,1.31749,
2008-03-04, 03:45:00,VALID,916.421,VALID,0,VALID,100,VALID,0.0339617,VALID,17.4777,VALID,145,VALID,1.27852,